ASNARO

Last updated on Sat Oct 25 2025 00:02:32 GMT+0000 (Coordinated Universal Time)

1 40298U 14070A 25297.74589497 .00013731 00000+0 65072-3 0 9990 2 40298 97.3693 14.8775 0004401 225.6993 134.3882 15.19413492608258
UTC large
Height (km)
Speed (km/s)
/
Latitude / Longitude
Inclination (degrees)
Orbital Period (minutes)
Azimuth
Elevation
Range (km)
Doppler Factor

Next 0 passes for location: London (51.5072 / 0.1276)

Sorry there are no passes over London.